When you browse on this site, cookies collect data to enhance your experience and personalize the content and advertising you see.
Visit our Privacy Policy to learn more. By continuing to use the site, you agree to this use of cookies and data.
  • în România
  • Lista ţărilor
  • Pe 7 zile
  • Temperatura apei
  • Hartă satelitară
  • Meteo pe hartă
  • Widget-uri
  • user-avatar
    Intrare

    Meteo pe oră la Acerenza

    Astăzi, 16 Iulie, Marţi

    Timp Temperatura Precipitaţii Vânt Presiune Umiditate
    00:00 +18°C° 0.2 mm 2 m/s 696 mmHg 72%
    01:00 +18°C° 0 mm 1 m/s 695 mmHg 80%
    02:00 +17°C° 0.6 mm 2 m/s 695 mmHg 84%
    03:00 +17°C° 0.6 mm 2 m/s 695 mmHg 88%
    04:00 +16°C° 0.6 mm 2 m/s 695 mmHg 92%
    05:00 +16°C° 1.4 mm 2 m/s 695 mmHg 91%
    06:00 +16°C° 1.4 mm 2 m/s 695 mmHg 90%
    07:00 +16°C° 0 mm 2 m/s 695 mmHg 88%
    08:00 +17°C° 0.5 mm 2 m/s 695 mmHg 84%
    09:00 +18°C° 0.5 mm 3 m/s 696 mmHg 79%
    10:00 +19°C° 0.5 mm 3 m/s 696 mmHg 74%
    11:00 +19°C° 1 mm 4 m/s 696 mmHg 72%
    12:00 +20°C° 1 mm 5 m/s 697 mmHg 70%
    13:00 +20°C° 1 mm 5 m/s 697 mmHg 68%
    14:00 +20°C° 0.6 mm 5 m/s 697 mmHg 67%
    15:00 +20°C° 0.6 mm 5 m/s 697 mmHg 66%
    16:00 +20°C° 0.6 mm 4 m/s 697 mmHg 65%
    17:00 +20°C° 0 mm 3 m/s 697 mmHg 68%
    18:00 +19°C° 0 mm 3 m/s 697 mmHg 70%
    19:00 +18°C° 0 mm 2 m/s 697 mmHg 73%
    20:00 +17°C° 0 mm 2 m/s 697 mmHg 76%
    21:00 +17°C° 0 mm 2 m/s 698 mmHg 80%
    22:00 +16°C° 0 mm 3 m/s 698 mmHg 84%
    23:00 +14°C° 0 mm 3 m/s 698 mmHg 84%

    Mâine, 17 Iulie, Miercuri

    Timp Temperatura Precipitaţii Vânt Presiune Umiditate
    00:00 +14°C° 0 mm 3 m/s 698 mmHg 84%
    01:00 +15°C° 0 mm 2 m/s 698 mmHg 84%
    02:00 +15°C° 0 mm 2 m/s 697 mmHg 81%
    03:00 +15°C° 0 mm 2 m/s 697 mmHg 79%
    04:00 +14°C° 0 mm 2 m/s 697 mmHg 77%
    05:00 +16°C° 0 mm 3 m/s 698 mmHg 75%
    06:00 +17°C° 0 mm 3 m/s 698 mmHg 74%
    07:00 +18°C° 0 mm 3 m/s 699 mmHg 72%
    08:00 +20°C° 0 mm 4 m/s 699 mmHg 65%
    09:00 +21°C° 0 mm 4 m/s 700 mmHg 58%
    10:00 +23°C° 0 mm 4 m/s 700 mmHg 51%
    11:00 +25°C° 0 mm 4 m/s 700 mmHg 47%
    12:00 +26°C° 0 mm 4 m/s 700 mmHg 43%
    13:00 +27°C° 0 mm 4 m/s 700 mmHg 39%
    14:00 +27°C° 0 mm 4 m/s 700 mmHg 38%
    15:00 +27°C° 0 mm 5 m/s 700 mmHg 37%
    16:00 +27°C° 0 mm 5 m/s 700 mmHg 36%
    17:00 +25°C° 0 mm 4 m/s 700 mmHg 42%
    18:00 +22°C° 0 mm 3 m/s 699 mmHg 49%
    19:00 +21°C° 0 mm 1 m/s 699 mmHg 55%
    20:00 +20°C° 0 mm 1 m/s 699 mmHg 56%
    21:00 +19°C° 0 mm 1 m/s 699 mmHg 57%
    22:00 +18°C° 0 mm 1 m/s 699 mmHg 59%
    23:00 +18°C° 0 mm 1 m/s 699 mmHg 60%

    Poimâine, 18 Iulie, Joi

    Timp Temperatura Precipitaţii Vânt Presiune Umiditate
    00:00 +18°C° 0 mm 1 m/s 698 mmHg 62%
    01:00 +16°C° 0 mm 1 m/s 698 mmHg 64%
    02:00 +16°C° 0 mm 1 m/s 698 mmHg 64%
    03:00 +16°C° 0 mm 1 m/s 698 mmHg 65%
    04:00 +15°C° 0 mm 1 m/s 698 mmHg 66%
    05:00 +18°C° 0 mm 1 m/s 698 mmHg 61%
    06:00 +19°C° 0 mm 1 m/s 698 mmHg 57%
    07:00 +21°C° 0 mm 1 m/s 699 mmHg 52%
    08:00 +22°C° 0 mm 1 m/s 699 mmHg 47%
    09:00 +24°C° 0 mm 1 m/s 700 mmHg 42%
    10:00 +26°C° 0 mm 1 m/s 700 mmHg 37%
    11:00 +27°C° 0 mm 1 m/s 700 mmHg 35%
    12:00 +28°C° 0 mm 1 m/s 701 mmHg 32%
    13:00 +29°C° 0 mm 2 m/s 701 mmHg 29%
    14:00 +28°C° 0 mm 2 m/s 700 mmHg 31%
    15:00 +28°C° 0 mm 2 m/s 700 mmHg 34%
    16:00 +28°C° 0 mm 2 m/s 700 mmHg 36%
    17:00 +26°C° 0 mm 2 m/s 700 mmHg 42%
    18:00 +25°C° 0 mm 2 m/s 700 mmHg 48%
    19:00 +24°C° 0 mm 1 m/s 700 mmHg 54%
    20:00 +22°C° 0 mm 1 m/s 700 mmHg 59%
    21:00 +21°C° 0 mm 1 m/s 700 mmHg 64%
    22:00 +20°C° 0 mm 1 m/s 700 mmHg 69%
    23:00 +19°C° 0 mm 1 m/s 700 mmHg 70%

    19 Iulie, Vineri

    Timp Temperatura Precipitaţii Vânt Presiune Umiditate
    00:00 +19°C° 0 mm 1 m/s 700 mmHg 71%
    01:00 +19°C° 0 mm 1 m/s 700 mmHg 72%
    02:00 +18°C° 0 mm 1 m/s 699 mmHg 71%
    03:00 +18°C° 0 mm 1 m/s 699 mmHg 71%
    04:00 +18°C° 0 mm 1 m/s 699 mmHg 71%
    05:00 +19°C° 0 mm 1 m/s 699 mmHg 66%
    06:00 +21°C° 0 mm 1 m/s 700 mmHg 61%
    07:00 +22°C° 0 mm 1 m/s 700 mmHg 56%
    08:00 +24°C° 0 mm 1 m/s 701 mmHg 50%
    09:00 +26°C° 0 mm 1 m/s 702 mmHg 44%
    10:00 +28°C° 0 mm 1 m/s 702 mmHg 38%
    11:00 +28°C° 0 mm 1 m/s 702 mmHg 36%
    12:00 +29°C° 0 mm 2 m/s 702 mmHg 33%
    13:00 +30°C° 0 mm 2 m/s 702 mmHg 31%
    14:00 +29°C° 0 mm 2 m/s 702 mmHg 33%
    15:00 +29°C° 0 mm 2 m/s 702 mmHg 35%
    16:00 +29°C° 0 mm 2 m/s 702 mmHg 37%
    17:00 +27°C° 0 mm 1 m/s 701 mmHg 41%
    18:00 +26°C° 0 mm 1 m/s 701 mmHg 45%
    19:00 +25°C° 0 mm 1 m/s 701 mmHg 50%
    20:00 +24°C° 0 mm 1 m/s 701 mmHg 54%
    21:00 +22°C° 0 mm 1 m/s 701 mmHg 57%
    22:00 +21°C° 0 mm 1 m/s 701 mmHg 61%
    23:00 +21°C° 0 mm 1 m/s 701 mmHg 62%

    20 Iulie, Sâmbătă

    Timp Temperatura Precipitaţii Vânt Presiune Umiditate
    00:00 +20°C° 0 mm 1 m/s 701 mmHg 63%
    01:00 +20°C° 0 mm 1 m/s 701 mmHg 64%
    02:00 +20°C° 0 mm 1 m/s 701 mmHg 65%
    03:00 +20°C° 0 mm 1 m/s 701 mmHg 65%
    04:00 +20°C° 0 mm 1 m/s 701 mmHg 65%
    05:00 +19°C° 0 mm 0 m/s 701 mmHg 60%
    06:00 +21°C° 0 mm 0 m/s 702 mmHg 56%
    07:00 +22°C° 0 mm 0 m/s 702 mmHg 51%
    08:00 +26°C° 0 mm 1 m/s 703 mmHg 46%
    09:00 +27°C° 0 mm 1 m/s 703 mmHg 42%
    10:00 +29°C° 0 mm 2 m/s 703 mmHg 38%
    11:00 +29°C° 0 mm 2 m/s 704 mmHg 36%
    12:00 +30°C° 0 mm 2 m/s 704 mmHg 34%
    13:00 +31°C° 0 mm 2 m/s 704 mmHg 32%
    14:00 +30°C° 0 mm 2 m/s 704 mmHg 33%
    15:00 +30°C° 0 mm 2 m/s 703 mmHg 34%
    16:00 +30°C° 0 mm 2 m/s 703 mmHg 36%
    17:00 +28°C° 0 mm 2 m/s 703 mmHg 39%
    18:00 +27°C° 0 mm 2 m/s 703 mmHg 42%
    19:00 +26°C° 0 mm 2 m/s 703 mmHg 45%
    20:00 +25°C° 0 mm 2 m/s 703 mmHg 49%
    21:00 +23°C° 0 mm 1 m/s 703 mmHg 52%
    22:00 +22°C° 0 mm 1 m/s 702 mmHg 56%
    23:00 +22°C° 0 mm 1 m/s 702 mmHg 57%

    21 Iulie, Duminică

    Timp Temperatura Precipitaţii Vânt Presiune Umiditate
    00:00 +21°C° 0 mm 1 m/s 702 mmHg 58%
    01:00 +21°C° 0 mm 1 m/s 702 mmHg 59%
    02:00 +21°C° 0 mm 1 m/s 702 mmHg 59%
    03:00 +21°C° 0 mm 1 m/s 701 mmHg 60%
    04:00 +21°C° 0 mm 1 m/s 701 mmHg 60%
    05:00 +22°C° 0 mm 1 m/s 702 mmHg 56%
    06:00 +24°C° 0 mm 1 m/s 702 mmHg 52%
    07:00 +25°C° 0 mm 1 m/s 703 mmHg 47%
    08:00 +27°C° 0 mm 1 m/s 703 mmHg 43%
    09:00 +29°C° 0 mm 1 m/s 704 mmHg 38%
    10:00 +31°C° 0 mm 1 m/s 704 mmHg 34%
    11:00 +32°C° 0 mm 1 m/s 704 mmHg 32%
    12:00 +32°C° 0 mm 2 m/s 704 mmHg 30%
    13:00 +34°C° 0 mm 2 m/s 705 mmHg 27%
    14:00 +34°C° 0 mm 2 m/s 704 mmHg 29%
    15:00 +32°C° 0 mm 2 m/s 704 mmHg 30%
    16:00 +32°C° 0 mm 2 m/s 704 mmHg 32%
    17:00 +30°C° 0.1 mm 2 m/s 704 mmHg 37%
    18:00 +28°C° 0.1 mm 2 m/s 703 mmHg 42%
    19:00 +27°C° 0.1 mm 1 m/s 703 mmHg 47%
    20:00 +25°C° 0 mm 1 m/s 703 mmHg 50%
    21:00 +24°C° 0 mm 1 m/s 703 mmHg 53%
    22:00 +23°C° 0 mm 1 m/s 703 mmHg 56%
    23:00 +23°C° 0 mm 1 m/s 703 mmHg 57%
    Arată mai mult